International Virtual Aviation Organisation

Russian Federation and Kazakhstan MCD

 

Карточка аэропорта URKA

Внимание!
Информация на этой странице в стадии наполнения.
Если вы не увидели какой-то информации, или заметили неточность - пожалуйста сообщите нам!
Спасибо!
Команда RU-STAFF
Название аэропортаВитязево
Название аэропорта (англ.)Vityazevo
Превышение176 ft. (53.6 m.)
Координаты45°0.13200000000012', 37°20.832'
Высота перехода1100m
Эшелон переходаFL050
Коды ответчика2400-2407
Зона ОрВДРостов-на-Дону РПИ (URRV)
Данные METARURKA 211100Z 08006MPS 050V120 9999 SCT///TCU 30/21 Q1014 R04/010070 TEMPO 09010G17MPS RMK QFE757/1009
Проноз погоды (TAF)URKA 210755Z 2109/2209 04005G10MPS 9999 BKN030CB TEMPO 2109/2209 VRB07G14MPS 1000 TSRA SCT005 BKN020CB
NOTAMshow/hide NOTAM
AWOS   TABLE

Информация о ВПП

ВПП Длина ВПП (м.) Покрытие Курс ВПП Частота ILS
042500Цементобетон36109.1
222500Цементобетон216 

Диспетчерские позиции

Позывной Наименование органа УВД Частота
URKA_R_APPАнапа-Круг118.7
URKA_TWRАнапа-Старт119.8
URKA_GNDАнапа-Руление119.0



Спутниковое изображение